Weather History for KANW - January, 2013

Change the Weather History Date:

Wednesday, January 2, 2013

  Actual Average Record
Temperature  
Mean Temperature 27 °F -  
Max Temperature 32 °F 35 °F 64 °F (1998)
Min Temperature 22 °F 14 °F -2 °F (1999)
Degree Days  
Heating Degree Days 38    
Moisture  
Dew Point 23 °F    
Average Humidity 80    
Maximum Humidity 93    
Minimum Humidity 69    
Precipitation  
Precipitation 0.00 in - - ()
Sea Level Pressure  
Sea Level Pressure 30.07 in    
Wind  
Wind Speed 13 mph (NW)    
Max Wind Speed 22 mph    
Max Gust Speed 28 mph    
Visibility 9 miles    
Events Snow    
Averages and records for this station are not official NWS values.
T = Trace of Precipitation, MM = Missing Value Source: NWS Daily Summary

Daily Weather History Graph

Daily Weather History Graph

Search for Another Location

Airport or City:

Trip Planner

Search our weather history database for the weather conditions in past years. The results will help you decide how hot, cold, wet, or windy it might be!

Date:

Astronomy

Jan. 02, 2013 Rise Set
Actual Time 8:10 AM CST 5:18 PM CST
Civil Twilight 7:38 AM CST 5:50 PM CST
Nautical Twilight 7:02 AM CST 6:25 PM CST
Astronomical Twilight 6:28 AM CST 7:00 PM CST
Moon 11:00 PM CST (1/2) 10:45 AM CST (1/2)
Length of Visible Light 10h 12m
Length of Day
9h 08m
Waning Gibbous, 75% of the Moon is Illuminated
Jan 2
Waning Gibbous
Jan 4
Last Quarter
Jan 11
New
Jan 18
First Quarter
Jan 26
Full

Hourly Weather History & Observations

Time (CST) Temp. Windchill Dew Point Humidity Pressure Visibility Wind Dir Wind Speed Gust Speed Precip Events Conditions
12:15 AM 22.5 °F 11.7 °F 16.5 °F 78% 29.99 in 10.0 mi West 10.4 mph - N/A   Overcast
12:35 AM 23.7 °F 14.7 °F 17.8 °F 78% 29.99 in 10.0 mi West 8.1 mph - N/A   Overcast
12:55 AM 25.2 °F 15.7 °F 19.0 °F 78% 29.98 in 10.0 mi West 9.2 mph - N/A   Overcast
1:15 AM 26.1 °F 15.6 °F 19.9 °F 78% 29.98 in 10.0 mi West 11.5 mph - N/A   Overcast
1:35 AM 27.1 °F 17.5 °F 20.7 °F 77% 29.98 in 10.0 mi West 10.4 mph - N/A   Overcast
1:55 AM 27.5 °F 17.4 °F 21.6 °F 78% 29.98 in 10.0 mi WNW 11.5 mph - N/A Snow Light Snow
2:15 AM 27.9 °F 17.8 °F 23.4 °F 83% 29.99 in 5.0 mi WNW 11.5 mph - N/A Snow Light Snow
2:35 AM 27.9 °F 17.8 °F 24.4 °F 87% 29.99 in 7.0 mi WNW 11.5 mph - N/A Snow Light Snow
2:55 AM 28.4 °F 18.5 °F 25.5 °F 89% 30.00 in 4.0 mi WNW 11.5 mph - N/A Snow Light Snow
3:15 AM 28.4 °F 18.0 °F 26.6 °F 93% 30.01 in 3.0 mi WNW 12.7 mph 17.3 mph N/A Snow Light Snow
3:35 AM 28.9 °F 19.2 °F 26.6 °F 91% 30.01 in 4.0 mi NW 11.5 mph 16.1 mph N/A Snow Light Snow
3:55 AM 28.9 °F 18.2 °F 26.6 °F 91% 30.01 in 2.5 mi NW 13.8 mph 17.3 mph N/A Snow Light Snow
4:15 AM 28.9 °F 19.2 °F 26.6 °F 91% 30.01 in 5.0 mi NW 11.5 mph - N/A Snow Light Snow
4:35 AM 29.1 °F 19.4 °F 26.6 °F 90% 30.01 in 5.0 mi NW 11.5 mph - N/A Snow Light Snow
4:55 AM 29.3 °F 18.6 °F 26.6 °F 90% 30.01 in 4.0 mi NW 13.8 mph - N/A Snow Light Snow
5:15 AM 29.3 °F 18.6 °F 26.6 °F 90% 30.01 in 7.0 mi NW 13.8 mph 18.4 mph N/A Snow Light Snow
5:35 AM 28.9 °F 19.2 °F 26.2 °F 90% 30.01 in 7.0 mi NW 11.5 mph - N/A   Overcast
5:55 AM 28.8 °F 19.5 °F 25.7 °F 88% 30.01 in 10.0 mi NW 10.4 mph - N/A   Mostly Cloudy
6:15 AM 29.3 °F 22.3 °F 26.2 °F 88% 30.02 in 10.0 mi NW 6.9 mph - N/A   Mostly Cloudy
6:35 AM 30.0 °F 23.2 °F 25.7 °F 84% 30.02 in 10.0 mi NW 6.9 mph - N/A   Mostly Cloudy
6:55 AM 30.0 °F 21.7 °F 25.7 °F 84% 30.02 in 10.0 mi NW 9.2 mph 16.1 mph N/A Snow Light Snow
7:15 AM 30.2 °F 21.3 °F 25.7 °F 83% 30.02 in 10.0 mi WNW 10.4 mph - N/A   Overcast
7:35 AM 30.2 °F 20.8 °F 25.7 °F 83% 30.02 in 10.0 mi West 11.5 mph - N/A   Overcast
7:55 AM 30.2 °F 19.8 °F 26.1 °F 85% 30.03 in 10.0 mi WNW 13.8 mph 20.7 mph N/A   Overcast
8:15 AM 30.7 °F 20.9 °F 25.2 °F 80% 30.03 in 10.0 mi WNW 12.7 mph 19.6 mph N/A   Overcast
8:35 AM 30.7 °F 21.4 °F 24.8 °F 79% 30.03 in 10.0 mi WNW 11.5 mph 17.3 mph N/A   Overcast
8:55 AM 30.2 °F 21.9 °F 24.6 °F 80% 30.03 in 10.0 mi WNW 9.2 mph 17.3 mph N/A   Overcast
9:15 AM 30.4 °F 20.0 °F 24.4 °F 79% 30.04 in 10.0 mi NW 13.8 mph 18.4 mph N/A   Overcast
9:35 AM 29.8 °F 16.6 °F 23.0 °F 76% 30.05 in 4.0 mi NW 21.9 mph 27.6 mph N/A Snow Light Snow
9:55 AM 28.9 °F 17.3 °F 23.9 °F 81% 30.05 in 5.0 mi NW 16.1 mph 26.5 mph N/A Snow Light Snow
10:15 AM 29.7 °F 18.6 °F 23.7 °F 79% 30.07 in 7.0 mi NW 15.0 mph 25.3 mph N/A Snow Light Snow
10:35 AM 29.8 °F 19.8 °F 23.7 °F 78% 30.07 in 10.0 mi NW 12.7 mph 23.0 mph N/A   Overcast
10:55 AM 30.2 °F 18.5 °F 23.7 °F 77% 30.08 in 10.0 mi NW 17.3 mph 24.2 mph N/A   Overcast
11:15 AM 30.2 °F 17.4 °F 23.0 °F 75% 30.08 in 10.0 mi NW 20.7 mph 24.2 mph N/A   Overcast
11:35 AM 30.2 °F 19.3 °F 23.2 °F 75% 30.08 in 10.0 mi NW 15.0 mph 20.7 mph N/A   Overcast
11:55 AM 30.9 °F 20.7 °F 23.0 °F 72% 30.07 in 10.0 mi NW 13.8 mph 19.6 mph N/A   Overcast
12:15 PM 30.9 °F 19.4 °F 23.0 °F 72% 30.07 in 10.0 mi NW 17.3 mph 21.9 mph N/A   Overcast
12:35 PM 30.6 °F 19.4 °F 23.0 °F 74% 30.06 in 10.0 mi NW 16.1 mph 20.7 mph N/A   Overcast
12:55 PM 30.7 °F 20.9 °F 23.7 °F 75% 30.05 in 10.0 mi NW 12.7 mph - N/A   Overcast
1:15 PM 30.9 °F 20.7 °F 23.9 °F 75% 30.05 in 10.0 mi WNW 13.8 mph 21.9 mph N/A   Overcast
1:35 PM 31.1 °F 19.7 °F 23.0 °F 72% 30.05 in 10.0 mi NW 17.3 mph 23.0 mph N/A   Overcast
1:55 PM 31.5 °F 19.8 °F 23.2 °F 71% 30.05 in 10.0 mi NW 18.4 mph 23.0 mph N/A   Overcast
2:15 PM 31.6 °F 20.4 °F 23.4 °F 71% 30.05 in 10.0 mi NW 17.3 mph 24.2 mph N/A   Overcast
2:35 PM 31.6 °F 21.2 °F 22.8 °F 70% 30.05 in 10.0 mi NW 15.0 mph - N/A   Overcast
2:55 PM 31.8 °F 21.0 °F 22.6 °F 69% 30.06 in 10.0 mi NW 16.1 mph 19.6 mph N/A   Overcast
3:15 PM 32.0 °F 22.1 °F 22.8 °F 69% 30.06 in 10.0 mi NW 13.8 mph 21.9 mph N/A   Overcast
3:35 PM 32.0 °F 21.6 °F 22.8 °F 69% 30.07 in 10.0 mi NW 15.0 mph 20.7 mph N/A   Overcast
3:55 PM 32.0 °F 22.5 °F 23.2 °F 70% 30.07 in 10.0 mi NW 12.7 mph 18.4 mph N/A   Overcast
4:15 PM 31.8 °F 21.8 °F 23.4 °F 71% 30.08 in 10.0 mi NW 13.8 mph 18.4 mph N/A   Overcast
4:35 PM 30.6 °F 18.6 °F 23.0 °F 74% 30.09 in 10.0 mi NW 18.4 mph 26.5 mph N/A   Overcast
4:55 PM 29.3 °F 19.6 °F 21.9 °F 74% 30.09 in 10.0 mi NW 11.5 mph - N/A   Overcast
5:15 PM 28.9 °F 19.8 °F 22.1 °F 76% 30.10 in 7.0 mi NW 10.4 mph - N/A Snow Light Snow
5:35 PM 28.9 °F 20.4 °F 21.9 °F 75% 30.11 in 10.0 mi NW 9.2 mph - N/A   Overcast
5:55 PM 27.9 °F 15.9 °F 21.2 °F 76% 30.12 in 10.0 mi NW 16.1 mph 26.5 mph N/A   Overcast
6:15 PM 26.6 °F 16.2 °F 21.0 °F 79% 30.13 in 10.0 mi NW 11.5 mph 19.6 mph N/A   Mostly Cloudy
6:35 PM 26.2 °F 17.1 °F 21.0 °F 81% 30.13 in 10.0 mi NW 9.2 mph - N/A   Mostly Cloudy
6:55 PM 26.2 °F 15.2 °F 21.2 °F 81% 30.14 in 10.0 mi NW 12.7 mph - N/A   Overcast
7:15 PM 26.2 °F 14.2 °F 20.3 °F 78% 30.15 in 10.0 mi NW 15.0 mph 19.6 mph N/A   Overcast
7:35 PM 24.8 °F 12.4 °F 19.4 °F 80% 30.15 in 10.0 mi NW 15.0 mph 18.4 mph N/A   Overcast
7:55 PM 25.0 °F 12.2 °F 19.9 °F 81% 30.16 in 10.0 mi NW 16.1 mph - N/A   Overcast
8:15 PM 25.3 °F 14.1 °F 19.6 °F 79% 30.16 in 10.0 mi NW 12.7 mph - N/A   Overcast
8:35 PM 25.5 °F 12.9 °F 19.4 °F 78% 30.17 in 10.0 mi NW 16.1 mph 21.9 mph N/A   Overcast
8:55 PM 25.7 °F 11.2 °F 19.4 °F 77% 30.17 in 10.0 mi NW 21.9 mph 26.5 mph N/A   Overcast
9:15 PM 25.5 °F 12.4 °F 19.8 °F 79% 30.18 in 10.0 mi NW 17.3 mph 21.9 mph N/A   Overcast
9:35 PM 25.7 °F 14.0 °F 19.9 °F 79% 30.19 in 10.0 mi NW 13.8 mph - N/A   Overcast
9:55 PM 25.7 °F 12.3 °F 20.3 °F 80% 30.20 in 10.0 mi NW 18.4 mph 25.3 mph N/A   Overcast
10:15 PM 25.7 °F 12.7 °F 20.7 °F 81% 30.21 in 10.0 mi NW 17.3 mph 24.2 mph N/A Snow Light Snow
10:35 PM 25.5 °F 12.9 °F 21.2 °F 84% 30.22 in 7.0 mi NW 16.1 mph 23.0 mph N/A Snow Light Snow
10:55 PM 25.3 °F 12.6 °F 21.2 °F 84% 30.22 in 10.0 mi NNW 16.1 mph - N/A   Overcast
11:15 PM 25.3 °F 13.1 °F 21.2 °F 84% 30.23 in 10.0 mi NW 15.0 mph 18.4 mph N/A   Overcast
11:35 PM 25.2 °F 12.9 °F 21.6 °F 86% 30.24 in 10.0 mi NNW 15.0 mph - N/A   Overcast
11:55 PM 24.8 °F 12.4 °F 21.9 °F 89% 30.24 in 7.0 mi NW 15.0 mph - N/A   Overcast